This is the latest recevied weather packets stored in our database for station/object BM1CKC-10. If no packets are shown the sender has not sent any weather packets the latest 10 day(s).
| Time | Temp. | Humidity | Pressure | Rain* | Wind** | Luminosity | Snow |
|---|---|---|---|---|---|---|---|
| 1777670999 | 25.56° C | 59% | 1005.9 hPa | - | - | - | - |
| 1777668599 | 25° C | 61% | 1005.8 hPa | - | - | - | - |
| 1777658998 | 25° C | 58% | 1006.3 hPa | - | - | - | - |
| 1777649398 | 25.56° C | 55% | 1008 hPa | - | - | - | - |
| 1777648199 | 26.67° C | 56% | 1008.3 hPa | - | - | - | - |
| 1777646998 | 26.11° C | 57% | 1008.4 hPa | - | - | - | - |
| 1777645799 | 26.67° C | 52% | 1008.7 hPa | - | - | - | - |
| 1777644598 | 26.67° C | 53% | 1008.7 hPa | - | - | - | - |
| 1777642198 | 26.67° C | 52% | 1008.8 hPa | - | - | - | - |
| 1777640999 | 26.67° C | 53% | 1008.8 hPa | - | - | - | - |
| 1777639807 | 27.22° C | 52% | 1008.8 hPa | - | - | - | - |
| 1777638598 | 26.67° C | 52% | 1008.7 hPa | - | - | - | - |
| 1777637398 | 26.67° C | 51% | 1008.6 hPa | - | - | - | - |
| 1777636198 | 26.67° C | 52% | 1008.6 hPa | - | - | - | - |
| 1777634998 | 26.67° C | 52% | 1008.5 hPa | - | - | - | - |
| 1777633799 | 26.67° C | 51% | 1008.4 hPa | - | - | - | - |
| 1777632598 | 27.22° C | 51% | 1008.4 hPa | - | - | - | - |
| 1777631398 | 27.22° C | 52% | 1008.5 hPa | - | - | - | - |
| 1777630198 | 27.22° C | 51% | 1008.6 hPa | - | - | - | - |
| 1777628998 | 26.67° C | 50% | 1008.5 hPa | - | - | - | - |
| 1777627798 | 26.67° C | 52% | 1008.5 hPa | - | - | - | - |
| 1777626598 | 26.67° C | 52% | 1008.5 hPa | - | - | - | - |
| 1777625398 | 27.22° C | 52% | 1008.3 hPa | - | - | - | - |
| 1777624198 | 26.67° C | 52% | 1008.3 hPa | - | - | - | - |
| 1777622998 | 27.22° C | 53% | 1008.6 hPa | - | - | - | - |
* Rain since midnight (hover to see other rain measurements)
** Current wind speed in m/s (hover to see current wind gust speed)